Weather History for Pine River, MN

Change the Weather History Date:

Wednesday, January 2, 2013

  Actual Average Record
Temperature  
Mean Temperature 16 °F -  
Max Temperature 19 °F 19 °F 41 °F (1998)
Min Temperature 14 °F 3 °F -32 °F (2014)
Degree Days  
Heating Degree Days 48    
Moisture  
Dew Point 16 °F    
Average Humidity 90    
Maximum Humidity 100    
Minimum Humidity 79    
Precipitation  
Precipitation 0.00 in - - ()
Sea Level Pressure  
Sea Level Pressure 29.94 in    
Wind  
Wind Speed 6 mph (SW)    
Max Wind Speed 12 mph    
Max Gust Speed 16 mph    
Visibility 7 miles    
Events Snow    
Averages and records for this station are not official NWS values.
T = Trace of Precipitation, MM = Missing Value Source: NWS Daily Summary

Daily Weather History Graph

Daily Weather History Graph

Search for Another Location

Airport:

Trip Planner

Search our weather history database for the weather conditions in past years. The results will help you decide how hot, cold, wet, or windy it might be!

Date:

Astronomy

Jan. 02, 2013 Rise Set
Actual Time 8:02 AM CST 4:41 PM CST
Civil Twilight 7:27 AM CST 5:16 PM CST
Nautical Twilight 6:48 AM CST 5:54 PM CST
Astronomical Twilight 6:12 AM CST 6:31 PM CST
Moon 10:37 PM CST (1/2) 10:23 AM CST (1/2)
Length of Visible Light 9h 49m
Length of Day
8h 39m
Waning Gibbous, 75% of the Moon is Illuminated
Jan 2
Waning Gibbous
Jan 4
Last Quarter
Jan 11
New
Jan 18
First Quarter
Jan 26
Full

Hourly Weather History & Observations

Time (CST) Temp. Windchill Dew Point Humidity Pressure Visibility Wind Dir Wind Speed Gust Speed Precip Events Conditions
12:13 AM 19.4 °F 14.3 °F 15.8 °F 86% 29.92 in 7.0 mi South 3.5 mph - N/A   Overcast
12:32 AM 19.4 °F 9.5 °F 17.6 °F 93% 29.92 in 10.0 mi SW 8.1 mph - N/A   Overcast
12:53 AM 19.4 °F 8.6 °F 17.6 °F 93% 29.91 in 10.0 mi SSW 9.2 mph 16.1 mph N/A   Overcast
1:12 AM 19.4 °F 10.4 °F 17.6 °F 93% 29.91 in 10.0 mi SSW 6.9 mph - N/A   Overcast
1:30 AM 19.4 °F 9.5 °F 17.6 °F 93% 29.91 in 10.0 mi SSW 8.1 mph - N/A   Overcast
1:53 AM 19.4 °F 10.4 °F 17.6 °F 93% 29.90 in 10.0 mi SSW 6.9 mph - N/A   Overcast
2:12 AM 19.4 °F 10.4 °F 17.6 °F 93% 29.90 in 10.0 mi SW 6.9 mph - N/A   Overcast
2:33 AM 19.4 °F 8.6 °F 17.6 °F 93% 29.89 in 10.0 mi SW 9.2 mph - N/A   Overcast
2:53 AM 19.4 °F 10.4 °F 17.6 °F 93% 29.89 in 10.0 mi SW 6.9 mph - N/A   Overcast
3:13 AM 19.4 °F 9.5 °F 17.6 °F 93% 29.89 in 10.0 mi SSW 8.1 mph - N/A   Overcast
3:33 AM 19.4 °F 12.8 °F 17.6 °F 93% 29.89 in 10.0 mi SSW 4.6 mph - N/A   Overcast
3:52 AM 19.4 °F 8.6 °F 17.6 °F 93% 29.89 in 10.0 mi SSW 9.2 mph - N/A   Overcast
4:11 AM 19.4 °F 8.6 °F 17.6 °F 93% 29.88 in 10.0 mi SSW 9.2 mph - N/A   Overcast
4:33 AM 19.4 °F 9.5 °F 17.6 °F 93% 29.88 in 10.0 mi South 8.1 mph - N/A   Overcast
4:53 AM 19.4 °F 8.6 °F 15.8 °F 86% 29.88 in 10.0 mi South 9.2 mph - N/A   Overcast
5:13 AM 19.4 °F 9.5 °F 15.8 °F 86% 29.87 in 10.0 mi South 8.1 mph - N/A   Overcast
5:33 AM 19.4 °F 12.8 °F 15.8 °F 86% 29.88 in 10.0 mi SSW 4.6 mph - N/A   Overcast
6:12 AM 19.4 °F 10.4 °F 15.8 °F 86% 29.88 in 2.5 mi SSW 6.9 mph - N/A Snow Light Snow
6:33 AM 17.6 °F 10.7 °F 15.8 °F 93% 29.88 in 2.0 mi South 4.6 mph - N/A Snow Light Snow
6:53 AM 17.6 °F 10.7 °F 15.8 °F 93% 29.88 in 3.0 mi South 4.6 mph - N/A Snow Light Snow
7:12 AM 17.6 °F 10.7 °F 15.8 °F 93% 29.88 in 4.0 mi South 4.6 mph - N/A Snow Light Snow
7:33 AM 17.6 °F 9.3 °F 15.8 °F 93% 29.88 in 3.0 mi South 5.8 mph - N/A Snow Light Snow
7:53 AM 17.6 °F 10.7 °F 15.8 °F 93% 29.88 in 4.0 mi South 4.6 mph - N/A Snow Light Snow
8:13 AM 17.6 °F 7.3 °F 15.8 °F 93% 29.87 in 3.0 mi South 8.1 mph - N/A Snow Light Snow
8:32 AM 17.6 °F 7.3 °F 15.8 °F 93% 29.88 in 2.5 mi South 8.1 mph - N/A   Overcast
9:13 AM 17.6 °F 8.2 °F 14.0 °F 86% 29.89 in 4.0 mi South 6.9 mph - N/A   Overcast
9:32 AM 17.6 °F 6.4 °F 14.0 °F 86% 29.89 in 4.0 mi South 9.2 mph - N/A Snow Light Snow
9:53 AM 17.6 °F 6.4 °F 12.2 °F 79% 29.90 in 10.0 mi South 9.2 mph - N/A   Overcast
10:13 AM 17.6 °F 7.3 °F 12.2 °F 79% 29.90 in 10.0 mi South 8.1 mph - N/A   Overcast
10:31 AM 17.6 °F 7.3 °F 14.0 °F 86% 29.91 in 7.0 mi South 8.1 mph - N/A   Overcast
10:52 AM 17.6 °F 9.3 °F 14.0 °F 86% 29.91 in 5.0 mi South 5.8 mph - N/A   Overcast
11:13 AM 17.6 °F 10.7 °F 14.0 °F 86% 29.91 in 7.0 mi South 4.6 mph - N/A   Overcast
11:33 AM 17.6 °F 7.3 °F 14.0 °F 86% 29.91 in 10.0 mi South 8.1 mph - N/A   Overcast
11:53 AM 17.6 °F 9.3 °F 15.8 °F 93% 29.90 in 7.0 mi South 5.8 mph - N/A   Overcast
12:12 PM 17.6 °F 9.3 °F 15.8 °F 93% 29.90 in 7.0 mi South 5.8 mph - N/A   Overcast
12:33 PM 17.6 °F 12.3 °F 15.8 °F 93% 29.90 in 7.0 mi South 3.5 mph - N/A   Overcast
12:53 PM 17.6 °F 12.3 °F 15.8 °F 93% 29.90 in 7.0 mi SSW 3.5 mph - N/A   Overcast
1:13 PM 17.6 °F 12.3 °F 15.8 °F 93% 29.90 in 5.0 mi SSW 3.5 mph - N/A   Overcast
1:33 PM 19.4 °F 12.8 °F 15.8 °F 86% 29.89 in 5.0 mi SSW 4.6 mph - N/A   Overcast
1:53 PM 19.4 °F 14.3 °F 15.8 °F 86% 29.90 in 5.0 mi SSW 3.5 mph - N/A   Overcast
2:13 PM 19.4 °F - 17.6 °F 93% 29.91 in 5.0 mi Calm Calm - N/A   Overcast
2:33 PM 19.4 °F - 17.6 °F 93% 29.91 in 5.0 mi Calm Calm - N/A   Overcast
2:53 PM 19.4 °F - 17.6 °F 93% 29.92 in 5.0 mi Calm Calm - N/A   Overcast
3:13 PM 19.4 °F - 17.6 °F 93% 29.93 in 4.0 mi Calm Calm - N/A   Overcast
3:32 PM 19.4 °F - 17.6 °F 93% 29.93 in 4.0 mi Calm Calm - N/A   Overcast
3:52 PM 19.4 °F - 17.6 °F 93% 29.94 in 4.0 mi Calm Calm - N/A   Overcast
4:12 PM 19.4 °F - 17.6 °F 93% 29.95 in 4.0 mi Calm Calm - N/A   Overcast
4:32 PM 19.4 °F - 17.6 °F 93% 29.95 in 4.0 mi Calm Calm - N/A   Overcast
4:52 PM 19.4 °F - 17.6 °F 93% 29.95 in 4.0 mi Calm Calm - N/A   Overcast
5:12 PM 19.4 °F - 19.4 °F 100% 29.96 in 4.0 mi Calm Calm - N/A   Overcast
5:32 PM 19.4 °F - 19.4 °F 100% 29.97 in 4.0 mi Calm Calm - N/A   Overcast
5:52 PM 19.4 °F 14.3 °F 19.4 °F 100% 29.98 in 4.0 mi West 3.5 mph - N/A   Overcast
6:13 PM 19.4 °F 12.8 °F 17.6 °F 93% 29.98 in 7.0 mi West 4.6 mph - N/A   Overcast
6:33 PM 19.4 °F 14.3 °F 17.6 °F 93% 29.99 in 7.0 mi WNW 3.5 mph - N/A   Overcast
6:52 PM 19.4 °F 10.4 °F 17.6 °F 93% 30.00 in 10.0 mi NW 6.9 mph - N/A   Overcast
7:12 PM 19.4 °F 9.5 °F 17.6 °F 93% 30.00 in 10.0 mi NNW 8.1 mph - N/A   Overcast
7:32 PM 19.4 °F 11.5 °F 15.8 °F 86% 30.01 in 10.0 mi NW 5.8 mph - N/A   Overcast
7:53 PM 19.4 °F 9.5 °F 15.8 °F 86% 30.02 in 10.0 mi NW 8.1 mph - N/A   Overcast
8:12 PM 17.6 °F 6.4 °F 15.8 °F 93% 30.03 in 10.0 mi NW 9.2 mph - N/A   Overcast
8:33 PM 17.6 °F 8.2 °F 15.8 °F 93% 30.04 in 10.0 mi NNW 6.9 mph - N/A   Overcast
8:52 PM 17.6 °F 5.0 °F 14.0 °F 86% 30.04 in 10.0 mi NW 11.5 mph - N/A   Overcast
9:12 PM 17.6 °F 8.2 °F 14.0 °F 86% 30.05 in 7.0 mi NNW 6.9 mph - N/A Snow Light Snow
9:32 PM 15.8 °F 7.2 °F 12.2 °F 86% 30.05 in 7.0 mi NNW 5.8 mph - N/A   Overcast
9:53 PM 15.8 °F 3.4 °F 12.2 °F 86% 30.06 in 7.0 mi NNW 10.4 mph 16.1 mph N/A   Overcast
10:12 PM 15.8 °F 3.4 °F 12.2 °F 86% 30.07 in 5.0 mi NW 10.4 mph - N/A Snow Light Snow
10:33 PM 15.8 °F 5.1 °F 12.2 °F 86% 30.07 in 5.0 mi NW 8.1 mph - N/A Snow Light Snow
10:52 PM 15.8 °F 7.2 °F 10.4 °F 79% 30.08 in 7.0 mi NW 5.8 mph 16.1 mph N/A Snow Light Snow
11:12 PM 14.0 °F 2.0 °F 10.4 °F 86% 30.09 in 7.0 mi NNW 9.2 mph - N/A   Overcast
11:32 PM 14.0 °F 2.9 °F 10.4 °F 86% 30.09 in 10.0 mi NW 8.1 mph - N/A   Overcast
11:53 PM 14.0 °F 2.9 °F 10.4 °F 86% 30.10 in 10.0 mi NW 8.1 mph - N/A   Overcast